Location: Beayukes
(6.6235°N, 10.7748°W)
Time: 02:05:06
(UTC+00:00)

Daily predictions for brighter satellites

Satellite Brightness Start Highest point End
(mag) Time Altitude Azimuth Time Altitude Azimuth Time Altitude Azimuth
Atlas Centaur 2 3.7 04:36:54 41° NNE 04:36:54 41° NNE 04:42:42 10° NE
CZ-3A R/B 3.3 04:53:40 53° NNW 04:55:16 63° NNE 05:22:55 10° ESE
Lacrosse 4 Rocket 2.9 04:58:24 38° ESE 04:58:24 38° ESE 05:01:38 10° SE
Cosmos 2278 Rocket 4.1 05:08:57 17° SSW 05:08:57 17° SSW 05:10:18 10° S
NOSS 3-3 (A) 3.7 05:06:20 56° S 05:07:33 79° ESE 05:13:17 10° NNE
NOSS 3-3 (C) 3.7 05:06:12 51° S 05:07:39 78° ESE 05:13:23 10° NNE
OAO 2 Rocket 3.8 05:08:49 52° S 05:09:26 55° SE 05:14:35 10° ENE
Cosmos 676 Rocket 4.3 05:06:15 10° S 05:11:28 65° ESE 05:16:42 10° NNE
Cosmos 1934 Rocket 3.9 05:11:56 46° NNW 05:13:57 75° W 05:20:17 10° S
ARIANE 5 R/B 3.6 05:11:36 38° WSW 05:14:46 54° SSW 05:18:31 10° ESE
Cosmos 1408 Rocket 4.4 05:12:51 24° NNE 05:15:16 50° E 05:19:34 10° SSE
STARLINK-1024 4.0 05:17:35 60° ESE 05:17:35 60° ESE 05:21:10 10° SE
STARLINK-1032 3.5 05:27:09 82° S 05:27:09 82° S 05:31:08 10° SSE
Ariane H10 3.9 05:27:13 21° SSW 05:28:12 22° SSW 05:30:52 10° SE
OAO 3 Rocket 3.1 05:29:11 65° WNW 05:29:29 67° NW 05:34:21 10° NE
GPS 2-18 Rocket1 3.7 05:29:46 45° NNE 05:29:46 45° NNE 05:33:21 10° E
Cosmos 1869 3.9 05:26:05 10° S 05:33:57 11° N 05:34:07 10° N
Cosmos 967 Rocket 4.3 05:24:53 10° SSW 05:31:10 72° WNW 05:37:31 10° NNE
STARLINK-1011 3.4 05:31:54 75° WSW 05:31:55 75° SW 05:36:02 10° SSE
Cosmos 1992 Rocket 4.2 05:27:58 10° N 05:33:08 68° ENE 05:38:18 10° SSE
ISS -1.5 05:35:49 16° NNE 05:35:49 16° NNE 05:36:41 10° NNE
ATLAS 2A CENTAUR R/B 4.2 05:20:57 25° WNW 05:35:49 81° NNE 05:41:23 10° ESE
STARLINK-1036 3.5 05:36:43 62° WSW 05:36:55 64° SW 05:41:00 10° SSE
EXPRESS MD2 4.4 05:38:20 19° ENE 05:38:20 19° ENE 05:39:51 10° ESE
ARIANE 5 DEB (SYLDA) 3.6 05:37:31 34° WSW 05:39:28 59° S 05:53:09 10° E
Cosmos 1605 Rocket 3.8 05:33:54 10° N 05:39:59 71° W 05:46:02 10° S
STARLINK-1044 3.7 05:41:29 52° W 05:41:52 54° SW 05:45:54 10° SSE
VEP-3 3.7 05:38:51 31° W 05:42:23 61° NNW 06:04:35 10° ENE
Ariane H10 3.3 05:44:02 36° SW 05:44:51 46° S 05:51:12 10° ESE
ALOS 2.1 05:40:45 10° N 05:45:23 75° WNW 05:50:03 10° SSW
Cosmos 1727 Rocket 4.5 05:40:26 10° SSW 05:46:00 35° W 05:51:32 10° NNW
Delta 142 4.0 05:46:09 32° NW 05:48:28 81° NNE 05:54:41 10° ESE
Cosmos 2297 3.6 05:45:32 13° NNW 05:50:35 65° WSW 05:56:12 10° S
GPS 2-14 Rocket1 4.1 05:50:26 22° NNW 05:50:51 22° NNW 05:54:05 10° NE
STARLINK-1037 4.1 05:51:07 36° W 05:51:52 39° SW 05:55:44 10° SSE
ASTRO E2 3.3 05:50:17 26° NNW 05:52:07 48° NNE 05:55:57 10° ESE
CZ-3 R/B 3.0 05:34:54 19° WNW 05:54:22 89° NNE 06:01:08 10° ESE
FENGYUN 3A 3.6 05:50:16 10° N 05:55:37 61° WNW 06:00:57 10° SSW
Cosmos 1153 Rocket 4.4 05:50:09 10° N 05:56:16 86° W 06:02:28 10° S
STARLINK-1059 4.3 05:55:50 30° W 05:56:44 34° WSW 06:00:30 10° S
Cosmos 1500 Rocket 3.5 05:58:19 10° N 06:02:41 90° SE 06:07:01 10° S
Ariane H10-3 3.1 06:01:44 15° SW 06:02:57 18° SSW 06:04:36 10° SSE
SL-8 R/B 4.2 06:01:28 21° WSW 06:04:03 37° NW 06:08:28 10° NNE
Cosmos 2369 Rocket 3.9 05:59:33 10° N 06:04:42 35° ENE 06:09:49 10° SE
Ariane 42L Rocket 4.5 06:09:10 13° WSW 06:12:48 43° S 06:29:08 10° ESE
NOSS 3-1 (C) 4.5 06:05:52 10° NW 06:14:14 52° WSW 06:22:45 10° S
Cosmos 2173 Rocket 4.3 06:08:13 10° N 06:14:22 72° E 06:20:27 10° S
Cosmos 1850 Rocket 4.0 06:09:42 10° SSW 06:15:02 79° WNW 06:20:21 10° N
ARIANE 5 DEB (SYLDA) 3.7 06:12:26 14° WSW 06:15:02 48° S 06:20:51 10° E
Cosmos 1743 Rocket 3.7 06:11:01 10° NNW 06:15:13 51° W 06:19:27 10° S
Okean O Rocket 1.5 06:14:05 10° N 06:18:24 75° WNW 06:22:43 10° SSW
ERBS 2.2 06:16:07 10° SSW 06:19:29 85° WNW 06:22:51 10° NNE
SMAP 4.4 06:20:18 10° NNE 06:24:44 45° ESE 06:29:10 10° S
Atlas Centaur 2 4.4 06:19:32 11° WNW 06:25:14 22° NNW 06:31:25 10° NNE
COSMO-SKYMED 1 2.6 06:21:45 10° S 06:26:06 88° W 06:30:25 10° NNW
CZ-4B R/B 3.1 06:21:18 10° N 06:26:31 65° WNW 06:31:47 10° SSW
STARLINK-1043 4.3 06:24:21 10° NNW 06:28:23 55° NE 06:32:26 10° SE
ARIANE 5 R/B 3.6 06:27:53 10° WSW 06:30:43 41° SSE 06:41:07 10° E
Helios 1A Rocket 2.9 06:27:22 10° N 06:31:28 80° W 06:35:32 10° SSW
Cosmos 2100 Rocket 3.9 06:25:26 10° N 06:31:31 69° W 06:37:37 10° S
STARLINK-1065 4.1 06:29:17 10° NNW 06:33:22 64° NE 06:37:27 10° SE
GPS 2-12 Rocket1 3.3 06:28:49 10° WNW 06:33:34 70° NNE 06:38:13 10° ESE
Cosmos 921 Rocket 3.7 06:30:01 10° N 06:34:13 59° ENE 06:38:22 10° SSE
Cosmos 2123 Rocket 4.3 06:29:26 10° SSW 06:35:29 48° W 06:41:31 10° NNW
STARLINK-1063 3.8 06:34:11 10° NNW 06:38:18 75° NE 06:42:26 10° SE
SOZ 4.4 06:37:22 10° NNW 06:39:53 76° NE 06:42:16 10° SE
Cosmos 1818 3.5 06:35:08 10° SSW 06:40:31 77° WNW 06:45:56 10° NNE
Cosmos 1741 Rocket 4.4 06:36:12 10° SW 06:41:02 40° WNW 06:45:54 10° N
Cosmos 1459 Rocket 4.1 06:35:52 10° NNW 06:42:00 60° W 06:48:16 10° S
TSX-5 4.2 06:36:39 10° NNW 06:42:04 85° WSW 06:46:13 10° SSE
